When you browse on this site, cookies collect data to enhance your experience and personalize the content and advertising you see.
Visit our Privacy Policy to learn more. By continuing to use the site, you agree to this use of cookies and data.
  • In Deutschland
  • Länderverzeichnis
  • Für 7 Tage
  • Wassertemperatur
  • Satellitenkarten
  • Wetterkarte
  • Widgets
  • user-avatar
    Anmelden

    Stündliche Wetter Crimmitschau

    Heute, 17 Februar, Sonntag

    Zeit Temperatur Niederschläge Wind Luftdruck Luftfeuchtigkeit
    00:00 +3°C° 0 mm 3 m/S 745 mmHg 75%
    01:00 +3°C° 0 mm 3 m/S 745 mmHg 75%
    02:00 +3°C° 0 mm 3 m/S 745 mmHg 75%
    03:00 +3°C° 0 mm 3 m/S 745 mmHg 75%
    04:00 +3°C° 0 mm 3 m/S 745 mmHg 76%
    05:00 +3°C° 0 mm 3 m/S 745 mmHg 75%
    06:00 +3°C° 0 mm 3 m/S 745 mmHg 74%
    07:00 +2°C° 0 mm 3 m/S 745 mmHg 73%
    08:00 +4°C° 0 mm 3 m/S 745 mmHg 69%
    09:00 +7°C° 0 mm 3 m/S 745 mmHg 64%
    10:00 +8°C° 0 mm 3 m/S 745 mmHg 60%
    11:00 +10°C° 0 mm 3 m/S 745 mmHg 57%
    12:00 +12°C° 0 mm 3 m/S 745 mmHg 54%
    13:00 +13°C° 0 mm 3 m/S 744 mmHg 51%
    14:00 +13°C° 0 mm 3 m/S 744 mmHg 55%
    15:00 +14°C° 0 mm 2 m/S 744 mmHg 58%
    16:00 +13°C° 0 mm 2 m/S 743 mmHg 61%
    17:00 +10°C° 0 mm 3 m/S 743 mmHg 66%
    18:00 +8°C° 0 mm 3 m/S 743 mmHg 70%
    19:00 +5°C° 0 mm 3 m/S 743 mmHg 75%
    20:00 +5°C° 0 mm 3 m/S 743 mmHg 73%
    21:00 +4°C° 0 mm 3 m/S 743 mmHg 71%
    22:00 +4°C° 0 mm 3 m/S 743 mmHg 69%
    23:00 +4°C° 0 mm 3 m/S 743 mmHg 68%

    Morgen, 18 Februar, Montag

    Zeit Temperatur Niederschläge Wind Luftdruck Luftfeuchtigkeit
    00:00 +3°C° 0 mm 3 m/S 743 mmHg 67%
    01:00 +3°C° 0 mm 3 m/S 742 mmHg 67%
    02:00 +3°C° 0 mm 3 m/S 742 mmHg 66%
    03:00 +3°C° 0 mm 3 m/S 742 mmHg 66%
    04:00 +2°C° 0 mm 3 m/S 742 mmHg 66%
    05:00 +2°C° 0 mm 3 m/S 742 mmHg 66%
    06:00 +2°C° 0 mm 3 m/S 742 mmHg 66%
    07:00 +2°C° 0 mm 3 m/S 742 mmHg 66%
    08:00 +4°C° 0 mm 3 m/S 742 mmHg 63%
    09:00 +5°C° 0 mm 3 m/S 742 mmHg 59%
    10:00 +7°C° 0 mm 4 m/S 742 mmHg 56%
    11:00 +9°C° 0 mm 3 m/S 742 mmHg 54%
    12:00 +11°C° 0 mm 3 m/S 742 mmHg 52%
    13:00 +13°C° 0 mm 3 m/S 742 mmHg 49%
    14:00 +12°C° 0 mm 3 m/S 741 mmHg 52%
    15:00 +12°C° 0 mm 3 m/S 741 mmHg 55%
    16:00 +13°C° 0 mm 2 m/S 740 mmHg 58%
    17:00 +10°C° 0 mm 3 m/S 740 mmHg 64%
    18:00 +8°C° 0 mm 3 m/S 740 mmHg 70%
    19:00 +5°C° 0 mm 3 m/S 740 mmHg 76%
    20:00 +5°C° 0 mm 3 m/S 740 mmHg 75%
    21:00 +4°C° 0 mm 3 m/S 740 mmHg 75%
    22:00 +4°C° 0 mm 3 m/S 740 mmHg 74%
    23:00 +3°C° 0 mm 3 m/S 740 mmHg 74%

    übermorgen, 19 Februar, Dienstag

    Zeit Temperatur Niederschläge Wind Luftdruck Luftfeuchtigkeit
    00:00 +3°C° 0 mm 3 m/S 740 mmHg 74%
    01:00 +3°C° 0 mm 3 m/S 740 mmHg 74%
    02:00 +3°C° 0 mm 4 m/S 740 mmHg 74%
    03:00 +3°C° 0 mm 4 m/S 740 mmHg 74%
    04:00 +3°C° 0 mm 4 m/S 739 mmHg 74%
    05:00 +1°C° 0 mm 4 m/S 739 mmHg 74%
    06:00 +1°C° 0 mm 4 m/S 739 mmHg 75%
    07:00 +1°C° 0 mm 4 m/S 739 mmHg 75%
    08:00 +3°C° 0 mm 5 m/S 739 mmHg 73%
    09:00 +5°C° 0 mm 5 m/S 740 mmHg 70%
    10:00 +5°C° 0 mm 6 m/S 740 mmHg 68%
    11:00 +8°C° 0 mm 6 m/S 740 mmHg 66%
    12:00 +9°C° 0 mm 6 m/S 740 mmHg 64%
    13:00 +10°C° 0 mm 6 m/S 740 mmHg 62%
    14:00 +9°C° 0.2 mm 6 m/S 740 mmHg 69%
    15:00 +8°C° 0.2 mm 5 m/S 740 mmHg 76%
    16:00 +6°C° 0.2 mm 4 m/S 740 mmHg 82%
    17:00 +5°C° 0.1 mm 4 m/S 740 mmHg 85%
    18:00 +4°C° 0.1 mm 3 m/S 740 mmHg 87%
    19:00 +4°C° 0.1 mm 3 m/S 741 mmHg 90%
    20:00 +3°C° 0 mm 3 m/S 741 mmHg 90%
    21:00 +3°C° 0 mm 3 m/S 741 mmHg 90%
    22:00 +3°C° 0 mm 3 m/S 742 mmHg 90%
    23:00 +3°C° 0 mm 3 m/S 742 mmHg 91%

    20 Februar, Mittwoch

    Zeit Temperatur Niederschläge Wind Luftdruck Luftfeuchtigkeit
    00:00 +2°C° 0 mm 3 m/S 742 mmHg 92%
    01:00 +2°C° 0 mm 3 m/S 742 mmHg 93%
    02:00 +2°C° 0 mm 3 m/S 742 mmHg 93%
    03:00 +1°C° 0 mm 3 m/S 742 mmHg 93%
    04:00 +1°C° 0 mm 3 m/S 742 mmHg 93%
    05:00 +1°C° 0 mm 3 m/S 742 mmHg 92%
    06:00 +1°C° 0 mm 3 m/S 743 mmHg 91%
    07:00 0°C° 0 mm 3 m/S 743 mmHg 90%
    08:00 +2°C° 0 mm 3 m/S 743 mmHg 85%
    09:00 +3°C° 0 mm 4 m/S 743 mmHg 80%
    10:00 +4°C° 0 mm 4 m/S 744 mmHg 74%
    11:00 +6°C° 0 mm 4 m/S 744 mmHg 69%
    12:00 +7°C° 0 mm 4 m/S 744 mmHg 63%
    13:00 +8°C° 0 mm 4 m/S 744 mmHg 58%
    14:00 +8°C° 0 mm 4 m/S 743 mmHg 59%
    15:00 +8°C° 0 mm 4 m/S 743 mmHg 59%
    16:00 +8°C° 0 mm 4 m/S 743 mmHg 60%
    17:00 +7°C° 0 mm 3 m/S 743 mmHg 67%
    18:00 +5°C° 0 mm 3 m/S 743 mmHg 75%
    19:00 +4°C° 0 mm 3 m/S 744 mmHg 83%
    20:00 +3°C° 0 mm 3 m/S 744 mmHg 84%
    21:00 +3°C° 0 mm 3 m/S 744 mmHg 85%
    22:00 +3°C° 0 mm 3 m/S 744 mmHg 87%
    23:00 +3°C° 0 mm 3 m/S 744 mmHg 86%

    21 Februar, Donnerstag

    Zeit Temperatur Niederschläge Wind Luftdruck Luftfeuchtigkeit
    00:00 +3°C° 0 mm 3 m/S 744 mmHg 86%
    01:00 +3°C° 0 mm 3 m/S 744 mmHg 86%
    02:00 +3°C° 0 mm 4 m/S 744 mmHg 87%
    03:00 +3°C° 0 mm 4 m/S 744 mmHg 88%
    04:00 +3°C° 0 mm 4 m/S 744 mmHg 90%
    05:00 +3°C° 0 mm 4 m/S 743 mmHg 90%
    06:00 +3°C° 0 mm 4 m/S 743 mmHg 90%
    07:00 +2°C° 0 mm 5 m/S 743 mmHg 91%
    08:00 +3°C° 0 mm 5 m/S 744 mmHg 86%
    09:00 +5°C° 0 mm 5 m/S 744 mmHg 81%
    10:00 +7°C° 0 mm 6 m/S 744 mmHg 76%
    11:00 +7°C° 0.1 mm 6 m/S 744 mmHg 78%
    12:00 +7°C° 0.1 mm 5 m/S 744 mmHg 80%
    13:00 +7°C° 0.1 mm 5 m/S 744 mmHg 82%
    14:00 +7°C° 0 mm 5 m/S 744 mmHg 81%
    15:00 +8°C° 0 mm 5 m/S 744 mmHg 80%
    16:00 +8°C° 0 mm 5 m/S 744 mmHg 79%
    17:00 +7°C° 0.1 mm 5 m/S 744 mmHg 82%
    18:00 +7°C° 0.1 mm 4 m/S 745 mmHg 85%
    19:00 +6°C° 0.1 mm 4 m/S 745 mmHg 88%
    20:00 +6°C° 0.1 mm 4 m/S 745 mmHg 87%
    21:00 +6°C° 0.1 mm 4 m/S 745 mmHg 86%
    22:00 +6°C° 0.1 mm 4 m/S 746 mmHg 85%
    23:00 +5°C° 0 mm 4 m/S 746 mmHg 87%

    22 Februar, Freitag

    Zeit Temperatur Niederschläge Wind Luftdruck Luftfeuchtigkeit
    00:00 +5°C° 0 mm 4 m/S 746 mmHg 89%
    01:00 +4°C° 0 mm 4 m/S 746 mmHg 90%
    02:00 +4°C° 0 mm 4 m/S 746 mmHg 91%
    03:00 +3°C° 0 mm 4 m/S 746 mmHg 92%
    04:00 +3°C° 0 mm 3 m/S 746 mmHg 92%
    05:00 +3°C° 0 mm 4 m/S 747 mmHg 93%
    06:00 +4°C° 0 mm 4 m/S 747 mmHg 93%
    07:00 +4°C° 0 mm 4 m/S 747 mmHg 94%
    08:00 +4°C° 0 mm 4 m/S 747 mmHg 91%
    09:00 +5°C° 0 mm 4 m/S 748 mmHg 89%
    10:00 +5°C° 0 mm 4 m/S 748 mmHg 86%
    11:00 +6°C° 0 mm 4 m/S 748 mmHg 81%
    12:00 +7°C° 0 mm 4 m/S 749 mmHg 76%
    13:00 +7°C° 0 mm 4 m/S 749 mmHg 71%
    14:00 +7°C° 0 mm 4 m/S 749 mmHg 73%
    15:00 +6°C° 0 mm 4 m/S 749 mmHg 76%
    16:00 +7°C° 0 mm 3 m/S 749 mmHg 78%
    17:00 +5°C° 0 mm 4 m/S 750 mmHg 81%
    18:00 +5°C° 0 mm 4 m/S 751 mmHg 85%
    19:00 +4°C° 0 mm 4 m/S 751 mmHg 88%
    20:00 +3°C° 0 mm 4 m/S 752 mmHg 87%
    21:00 +3°C° 0 mm 4 m/S 752 mmHg 86%
    22:00 +2°C° 0 mm 3 m/S 753 mmHg 85%
    23:00 +1°C° 0 mm 3 m/S 753 mmHg 86%
    Mehr zeigen